Satellite: NOAA-17
Catalog number: 27453
Epoch time:      12256.75488909
Element set:    0834
Inclination:      098.3323 deg
RA of node:       279.3507 deg
Eccentricity:    0.0010685
Arg of perigee:   259.4092 deg
Mean anomaly:     100.5870 deg
Mean motion:   14.24480326 rev/day
Decay rate:       1.03e-06 rev/day^2
Epoch rev:           53122
Checksum:              304

Satellite: NOAA-18
Catalog number: 28654
Epoch time:      12256.74029448
Element set:    0316
Inclination:      099.0552 deg
RA of node:       215.5990 deg
Eccentricity:    0.0013449
Arg of perigee:   269.9177 deg
Mean anomaly:     090.0446 deg
Mean motion:   14.11697558 rev/day
Decay rate:       2.47e-06 rev/day^2
Epoch rev:           37691
Checksum:              340

Satellite: NOAA-19
Catalog number: 33591
Epoch time:      12256.76792008
Element set:    0505
Inclination:      098.8677 deg
RA of node:       195.4920 deg
Eccentricity:    0.0014570
Arg of perigee:   130.3334 deg
Mean anomaly:     229.9137 deg
Mean motion:   14.11382424 rev/day
Decay rate:        3.2e-07 rev/day^2
Epoch rev:           18536
Checksum:              307

/EX
SB KEPS @ AMSAT  $ORB12257.M
Orbital Elements  12257.MISC

HR AMSAT ORBITAL ELEMENTS FOR MANNED AND MISCELLANEOUS SATELLITES
FROM WA5QGD FORT WORTH,TX September 13, 2012
Send SUBSCRIBE KEPS/UNSUBSCRIBE KEPS to majordomo@amsat.org only
BID: ORB12257.M
TO ALL RADIO AMATEURS BT

Satellite: HUBBLE
Catalog number: 20580
Epoch time:      12257.19433996
Element set:      69
Inclination:      028.4704 deg
RA of node:       287.5150 deg
Eccentricity:    0.0003044
Arg of perigee:   270.3566 deg
Mean anomaly:     089.6521 deg
Mean motion:   15.02776566 rev/day
Decay rate:      1.792e-05 rev/day^2
Epoch rev:            2798
Checksum:              313

Satellite: ISS
Catalog number: 25544
Epoch time:      12257.82977436
Element set:     294
Inclination:      051.6423 deg
RA of node:       040.6026 deg
Eccentricity:    0.0015298
Arg of perigee:   067.3440 deg
Mean anomaly:     067.8785 deg
Mean motion:   15.50570216 rev/day
Decay rate:      1.057e-05 rev/day^2
Epoch rev:           79179
Checksum:              313

Satellite: CO-58
Catalog number: 28895
Epoch time:      12257.58725851
Element set:     275
Inclination:      097.9023 deg
RA of node:       119.9199 deg
Eccentricity:    0.0016590
Arg of perigee:   231.1798 deg
Mean anomaly:     128.7929 deg
Mean motion:   14.60740140 rev/day
Decay rate:       4.98e-06 rev/day^2
Epoch rev:           36656
Checksum:              360

Satellite: FALCON
Catalog number: 30776
Epoch time:      12256.92273192
Element set:    0438
Inclination:      035.4320 deg
RA of node:       100.7235 deg
Eccentricity:    0.0001643
Arg of perigee:   352.5781 deg
Mean anomaly:     007.4911 deg
Mean motion:   15.08171905 rev/day
Decay rate:      4.322e-05 rev/day^2
Epoch rev:           30350
Checksum:              258

Satellite: MAST
Catalog number: 31126
Epoch time:      12257.57060482
Element set:     556
Inclination:      097.8759 deg
RA of node:       263.5117 deg
Eccentricity:    0.0093116
Arg of perigee:   194.6648 deg
Mean anomaly:     165.1841 deg
Mean motion:   14.54249963 rev/day
Decay rate:       2.36e-06 rev/day^2
Epoch rev:           28711
Checksum:              318

Satellite: CAPE1
Catalog number: 31130
Epoch time:      12257.54196351
Element set:     566
Inclination:      097.8846 deg
RA of node:       259.8225 deg
Eccentricity:    0.0100778
Arg of perigee:   208.3130 deg
Mean anomaly:     151.2551 deg
Mean motion:   14.53060567 rev/day
Decay rate:       4.53e-06 rev/day^2
Epoch rev:           28660
Checksum:              292

Satellite: COMPASS
Catalog number: 32787
Epoch time:      12257.65840782
Element set:     408
Inclination:      097.7939 deg
RA of node:       317.0120 deg
Eccentricity:    0.0016098
Arg of perigee:   128.1199 deg
Mean anomaly:     232.1470 deg
Mean motion:   14.84319492 rev/day
Decay rate:      1.307e-05 rev/day^2
Epoch rev:           23693
Checksum:              315

Satellite: AAUSAT2
Catalog number: 32788
Epoch time:      12257.67551030
Element set:     400
Inclination:      097.7939 deg
RA of node:       317.4609 deg
Eccentricity:    0.0015883
Arg of perigee:   128.3148 deg
Mean anomaly:     231.9494 deg
Mean motion:   14.84671053 rev/day
Decay rate:      1.931e-05 rev/day^2
Epoch rev:           23696
Checksum:              323

Satellite: DO-64
Catalog number: 32789
Epoch time:      12257.69528608
Element set:     416
Inclination:      097.8054 deg
RA of node:       319.8540 deg
Eccentricity:    0.0015332
Arg of perigee:   124.6480 deg
Mean anomaly:     235.6114 deg
Mean motion:   14.86383949 rev/day
Decay rate:      2.735e-05 rev/day^2
Epoch rev:           23702
Checksum:              330

Satellite: CO-66
Catalog number: 32791
Epoch time:      12257.81930252
Element set:     397
Inclination:      097.7894 deg
RA of node:       316.8353 deg
Eccentricity:    0.0016857
Arg of perigee:   128.6979 deg
Mean anomaly:     231.5673 deg
Mean motion:   14.83681916 rev/day
Decay rate:      1.365e-05 rev/day^2
Epoch rev:           23688
Checksum:              367

